sat.trackr.live / text

‹ back to catalog

STARLINK-30092

NORAD 57467 · 2023-107L

PAYLOAD ACTIVE UNKNOWN

§ Identity

Operator
Country
US
Launch date
2023-07-28
Launch site
AFETR
Launch vehicle
Mass (kg)
RCS (m²)

Purposes: comms

External: N2YO · Heavens-Above · Gunter

§ Orbital elements

Epoch: 2026-05-25T01:14:43.785024Z

Period
94.27 min
Inclination
43.0037°
Eccentricity
0.0000920
Mean motion
15.27582411 rev/d
Perigee alt
482.4 km
Apogee alt
483.7 km
Semi-major
6,861.2 km
B*
3.1957e-5
RAAN
265.0282°
Arg perigee
272.9959°
Mean anomaly
87.0787°
Rev number
15,682

§ Raw data

STARLINK-300921 57467U 23107L   26145.05189566  .00000618  00000+0  31957-4 0  99932 57467  43.0037 265.0282 0000920 272.9959  87.0787 15.27582411156822

JSON: /api/v1/satellites/57467 · /tle

For live sub-satellite position, see the globe view (requires WebGL).

§ Visibility from observer

Set your observer location to see the next 7 days of passes ≥ 10°. The values pass through the URL so the page stays shareable.

No JS? Fill the form by hand. The geolocation button needs JavaScript.